sat.trackr.live / text

‹ back to catalog

CHECKMATE 10

NORAD 57762 · 2023-133F

PAYLOAD ACTIVE UNKNOWN

§ Identity

Operator
Country
US
Launch date
2023-09-02
Launch site
AFWTR
Launch vehicle
Mass (kg)
RCS (m²)

External: N2YO · Heavens-Above · Gunter

§ Orbital elements

Epoch: 2026-09-21T12:46:20.661312Z

Period
103.94 min
Inclination
80.9966°
Eccentricity
0.0007517
Mean motion
13.85475742 rev/d
Perigee alt
939.0 km
Apogee alt
950.0 km
Semi-major
7,322.7 km
B*
4.5963e-5
RAAN
274.9051°
Arg perigee
107.4563°
Mean anomaly
252.7416°
Rev number
15,437

§ Raw data

CHECKMATE 101 57762U 23133F   26264.53218358  .00000064  00000+0  45963-4 0  99942 57762  80.9966 274.9051 0007517 107.4563 252.7416 13.85475742154374

JSON: /api/v1/satellites/57762 · /tle

For live sub-satellite position, see the globe view (requires WebGL).

§ Visibility from observer

Set your observer location to see the next 7 days of passes ≥ 10°. The values pass through the URL so the page stays shareable.

No JS? Fill the form by hand. The geolocation button needs JavaScript.